This is the latest recevied weather packets stored in our database for station/object SP6PWT-13. If no packets are shown the sender has not sent any weather packets the latest 10 day(s).
| Time | Temp. | Humidity | Pressure | Rain* | Wind** | Luminosity | Snow |
|---|---|---|---|---|---|---|---|
| 1777470678 | 9.44° C | 28% | 1012.5 hPa | 0 mm | - | 473 W/m² | - |
| 1777470378 | 10° C | 28% | 1012.3 hPa | 0 mm | - | 484 W/m² | - |
| 1777470077 | 10° C | 29% | 1012.2 hPa | 0 mm | - | 285 W/m² | - |
| 1777469777 | 10° C | 28% | 1012.1 hPa | 0 mm | - | 162 W/m² | - |
| 1777469476 | 9.44° C | 29% | 1012.2 hPa | 0 mm | - | 550 W/m² | - |
| 1777469176 | 8.89° C | 29% | 1012.4 hPa | 0 mm | - | 494 W/m² | - |
| 1777468875 | 9.44° C | 28% | 1012.3 hPa | 0 mm | - | 151 W/m² | - |
| 1777468574 | 9.44° C | 29% | 1012.3 hPa | 0 mm | - | 176 W/m² | - |
| 1777468273 | 9.44° C | 30% | 1012.3 hPa | 0 mm | - | 160 W/m² | - |
| 1777467972 | 10° C | 29% | 1012.3 hPa | 0 mm | - | 617 W/m² | - |
| 1777467671 | 10° C | 28% | 1012.4 hPa | 0 mm | - | 569 W/m² | - |
| 1777467370 | 9.44° C | 29% | 1012 hPa | 0 mm | - | 572 W/m² | - |
| 1777467070 | 9.44° C | 29% | 1012.2 hPa | 0 mm | - | 595 W/m² | - |
| 1777466770 | 10° C | 29% | 1012.2 hPa | 0 mm | - | 625 W/m² | - |
| 1777466469 | 10° C | 29% | 1012.2 hPa | 0 mm | - | 595 W/m² | - |
| 1777466169 | 9.44° C | 30% | 1012.2 hPa | 0 mm | - | 599 W/m² | - |
| 1777465869 | 9.44° C | 30% | 1012.4 hPa | 0 mm | - | 184 W/m² | - |
| 1777465568 | 9.44° C | 30% | 1012.3 hPa | 0 mm | - | 578 W/m² | - |
| 1777465267 | 9.44° C | 30% | 1012.2 hPa | 0 mm | - | 668 W/m² | - |
| 1777464967 | 8.89° C | 30% | 1012.2 hPa | 0 mm | - | 606 W/m² | - |
| 1777464666 | 8.89° C | 29% | 1012.4 hPa | 0 mm | - | 603 W/m² | - |
| 1777464365 | 9.44° C | 28% | 1012.2 hPa | 0 mm | - | 605 W/m² | - |
| 1777464064 | 9.44° C | 27% | 1012.4 hPa | 0 mm | - | 609 W/m² | - |
| 1777463764 | 9.44° C | 27% | 1012.4 hPa | 0 mm | - | 610 W/m² | - |
| 1777463463 | 9.44° C | 27% | 1012.1 hPa | 0 mm | - | 621 W/m² | - |
* Rain latest hour (hover to see other rain measurements)
** Current wind speed in m/s (hover to see current wind gust speed)